TimeEDT,TemperatureF,Dew PointF,Humidity,Sea Level PressureIn,VisibilityMPH,Wind Direction,Wind SpeedMPH,Gust SpeedMPH,PrecipitationIn,Events,Conditions,WindDirDegrees,DateUTC
12:53 AM,48.9,46.0,90,30.12,10.0,Calm,Calm,-,N/A,,Clear,0,2013-09-07 04:53:00
1:53 AM,48.0,46.0,93,30.12,10.0,Calm,Calm,-,N/A,,Clear,0,2013-09-07 05:53:00
2:53 AM,46.9,45.0,93,30.11,10.0,Calm,Calm,-,N/A,,Clear,0,2013-09-07 06:53:00
3:53 AM,46.9,44.1,90,30.10,10.0,Calm,Calm,-,N/A,,Clear,0,2013-09-07 07:53:00
4:53 AM,46.9,44.1,90,30.09,10.0,Calm,Calm,-,N/A,,Clear,0,2013-09-07 08:53:00
5:53 AM,46.9,45.0,93,30.08,10.0,Calm,Calm,-,N/A,,Clear,0,2013-09-07 09:53:00
6:53 AM,46.9,45.0,93,30.08,10.0,Calm,Calm,-,N/A,,Clear,0,2013-09-07 10:53:00
7:53 AM,52.0,48.9,89,30.09,10.0,Calm,Calm,-,N/A,,Clear,0,2013-09-07 11:53:00
8:53 AM,59.0,50.0,72,30.06,10.0,South,3.5,-,N/A,,Clear,180,2013-09-07 12:53:00
9:53 AM,63.0,48.0,58,30.07,10.0,SW,5.8,-,N/A,,Clear,220,2013-09-07 13:53:00
10:53 AM,66.0,48.9,54,30.06,10.0,SW,4.6,-,N/A,,Clear,230,2013-09-07 14:53:00
11:53 AM,70.0,48.9,47,30.03,10.0,SW,5.8,-,N/A,,Clear,230,2013-09-07 15:53:00
12:53 PM,73.9,51.1,45,29.99,10.0,SSW,3.5,-,N/A,,Clear,210,2013-09-07 16:53:00
1:53 PM,73.9,50.0,43,29.98,10.0,WSW,5.8,-,N/A,,Clear,240,2013-09-07 17:53:00
2:53 PM,77.0,51.1,40,29.95,10.0,Variable,5.8,-,N/A,,Clear,0,2013-09-07 18:53:00
3:53 PM,78.1,51.1,39,29.93,10.0,WSW,6.9,-,N/A,,Clear,240,2013-09-07 19:53:00
4:53 PM,75.9,51.1,42,29.92,10.0,SSW,4.6,-,N/A,,Clear,210,2013-09-07 20:53:00
5:53 PM,73.0,55.0,53,29.91,10.0,Calm,Calm,-,N/A,,Partly Cloudy,0,2013-09-07 21:53:00
6:53 PM,69.1,60.1,73,29.91,10.0,Calm,Calm,-,N/A,,Clear,0,2013-09-07 22:53:00
7:53 PM,66.0,59.0,78,29.90,10.0,Calm,Calm,-,N/A,,Clear,0,2013-09-07 23:53:00
8:53 PM,64.9,59.0,81,29.91,10.0,Calm,Calm,-,N/A,,Clear,0,2013-09-08 00:53:00
9:53 PM,64.9,60.1,84,29.90,10.0,Calm,Calm,-,N/A,,Mostly Cloudy,0,2013-09-08 01:53:00
10:53 PM,64.0,59.0,84,29.88,10.0,Calm,Calm,-,N/A,,Mostly Cloudy,0,2013-09-08 02:53:00
11:53 PM,64.0,57.9,80,29.87,10.0,Calm,Calm,-,N/A,,Overcast,0,2013-09-08 03:53:00